Miscellaneous Local Product
Issued by NWS North Platte, NE

Home | Current Version | Previous Version | Graphics & Text | Print | Product List | Glossary On
Versions: 1 2 3 4 5 6 7 8 9 10 11 12 13 14 15 16 17 18 19 20 21 22 23 24 25 26 27 28 29 30 31 32 33 34 35 36 37 38 39 40 41 42 43 44 45 46 47 48 49 50
720
AXUS43 KLBF 231110
MISLBF


WESTERN AND NORTH CENTRAL NEBRASKA HOURLY WEATHER ROUNDUP
NATIONAL WEATHER SERVICE NORTH PLATTE NE
600 AM CDT THU MAR 23 2017

NOTE: "FAIR" INDICATES FEW OR NO CLOUDS BELOW 12,000 FEET WITH NO
SIGNIFICANT WEATHER AND/OR OBSTRUCTIONS TO VISIBILITY.

NOTE: STATIONS NOT REPORTING VARIABLES SUCH AS SKY/WEATHER OR
PRESSURE ARE PROVIDED BY RAWS AND APRS NETWORKS AND ARE NOT UNDER
NATIONAL WEATHER SERVICE QUALITY CONTROL.

...OBSERVATIONS IN AND NEAR THE EASTERN PANHANDLE OF NEBRASKA...

CITY           SKY/WX    TMP DP  RH WIND       PRES   REMARKS
PINE RIDGE     CLOUDY    44  36  73 S13       29.70S
CHADRON        PTCLDY    46  35  65 S13       29.68F
ALLIANCE       CLOUDY    39  34  82 S14       29.71F WCI  31
SIDNEY         CLOUDY    33  31  92 SE5       29.70F WCI  29
CRESCENT LAKE    N/A     39  36  89 SE7G15      N/A  WCI  34
$$

...OBSERVATIONS IN NORTHERN NEBRASKA AND FAR SOUTHERN SOUTH DAKOTA...

CITY           SKY/WX    TMP DP  RH WIND       PRES   REMARKS
WINNER         FAIR      47  35  63 S28G37    29.74F
VALENTINE      CLOUDY    44  34  67 S16       29.75F
THEDFORD       CLOUDY    44  36  71 S17G24    29.77F
AINSWORTH      CLOUDY    43  33  68 S20       29.76F
O`NEILL        CLOUDY    46  31  56 S17G23    29.84F
ORD            CLOUDY    46  28  49 SE15      29.85F
BROKEN BOW     CLOUDY    44  32  62 SE14G25   29.82F
VALENTINE NWR    N/A     42  35  75 S17         N/A
HALSEY           N/A     43  33  68 S9G16       N/A
BUTTE            N/A     43  32  64 SE13        N/A
CHAMBERS         N/A     43  27  53 S7          N/A
EWING            N/A     43  32  64 SE8         N/A
$$

...OBSERVATIONS IN SOUTHWEST NEBRASKA AND FAR NORTHEAST COLORADO...

CITY           SKY/WX    TMP DP  RH WIND       PRES   REMARKS
HOLYOKE        FAIR      37  36  93 SE9       29.71F WCI  31
IMPERIAL       CLOUDY    42  39  89 SE9       29.73F
OGALLALA       CLOUDY    39  36  88 E5        29.74F
NORTH PLATTE   CLOUDY    45  36  70 SE13G22   29.78F
MCCOOK         CLOUDY    44  39  82 SE7       29.79F
LEXINGTON      CLOUDY    47  38  70 SE18      29.83S
STAPLETON        N/A     42  35  77 CALM        N/A
GOTHENBURG       N/A     44  33  65 SE9         N/A
CALLAWAY         N/A     41  33  73 SE16        N/A
$$

...OBSERVATIONS IN CENTRAL LINCOLN COUNTY AREA...

CITY           SKY/WX    TMP DP  RH WIND       PRES   REMARKS
N.P. AIRPORT   CLOUDY    45  36  70 SE13G22   29.78F
N.P. DOWNTOWN    N/A     44  37  77 SE5G16      N/A
N.P. SOUTHEAST   N/A     44  37  76 SE9G16      N/A
N.P. HILLCREST   N/A     44  38  79 SE13G21     N/A
$$

...SOME OBSERVATIONS FROM AROUND THE REGION...

CITY           SKY/WX    TMP DP  RH WIND       PRES   REMARKS
DENVER         PTCLDY    51  34  52 S17       29.70S
LIMON          FOG       36  36 100 S5        29.76S VSB 1/4 WCI  32
ASPEN          CLOUDY    43  31  62 SW6       29.85F
LARAMIE        CLOUDY    29  22  75 SE9       29.79F WCI  20
GILLETTE       CLOUDY    43  42  97 N7        29.70F
CHEYENNE       CLOUDY    41  33  73 NW9       29.73S
SCOTTSBLUFF    CLOUDY    41  33  73 E12       29.70F
GRAND ISLAND   CLOUDY    47  33  58 SE16G24   29.90F
OMAHA          CLOUDY    45  21  38 SE15      30.04F
SIOUX FALLS    CLOUDY    40  26  57 SE16      29.97F WCI  31
PIERRE         CLOUDY    44  30  57 SE12      29.76F
RAPID CITY     PTCLDY    46  39  76 NW10      29.66F
BISMARCK       CLOUDY    33  28  81 CALM      29.82R
KANSAS CITY    CLOUDY    51  31  46 SE15      30.08S
HILL CITY      CLOUDY    50  48  93 SE10      29.83F FOG
WICHITA        MOCLDY    54  46  74 SE12      29.95F
DODGE CITY     CLOUDY    58  57  97 S18G24    29.84S FOG
OKLAHOMA CITY  CLEAR     59  56  89 SE17      29.96F
DALLAS         MOCLDY    66  62  87 S16       30.01R
AMARILLO       MOCLDY    60  57  89 S23       29.87F
$$




USA.gov is the U.S. government's official web portal to all federal, state and local government web resources and services.